Wind_Speed
30 30 29 29 29 29 30 29 29 28 27 26 25 24 23 22 21 19 18 17 16 15 15 14 14 15 14 14 14 14 14 14 14 13 14 14 14 13 13 13 13 12 12 12
30 29 29 29 29 29 29 29 28 27 27 26 25 24 23 23 22 21 20 19 18 17 16 16 17 17 16 16 15 14 14 14 15 16 16 16 16 15 15 15 15 14 14 13
31 30 30 31 30 29 29 29 28 27 26 26 26 25 24 23 24 23 21 20 20 19 18 18 18 18 18 17 16 15 15 15 15 16 16 17 17 16 16 16 16 16 15 15
31 31 32 31 30 30 30 30 29 28 26 26 25 24 24 23 23 23 22 21 21 20 19 18 18 18 18 18 17 16 16 16 16 16 16 16 16 17 17 17 18 17 16 16
33 33 32 32 31 30 30 30 29 27 26 25 24 24 24 23 23 23 22 22 22 22 21 19 19 19 19 19 18 17 17 17 17 16 16 16 16 17 17 17 17 17 16 16
33 34 34 32 31 31 30 31 29 28 27 26 26 25 24 24 24 24 24 23 23 23 22 21 20 20 19 19 18 18 18 18 18 17 17 17 17 17 17 17 17 17 17 17
34 34 34 33 32 31 31 30 29 29 28 28 27 27 26 26 25 25 26 24 24 24 23 22 21 21 20 20 20 19 19 20 20 19 19 19 19 19 18 18 18 17 17 17
34 34 34 32 32 32 31 30 30 29 29 28 28 28 28 28 27 27 26 25 24 23 23 22 22 22 21 21 21 21 21 21 21 21 20 20 20 19 19 18 18 18 18 19
36 35 33 32 32 32 31 31 30 30 30 30 30 29 28 28 28 28 27 26 25 24 24 23 24 23 22 21 21 21 21 21 21 21 22 22 22 22 21 20 20 20 20 20
37 36 34 32 32 32 32 31 30 30 31 31 31 30 30 30 29 29 28 28 27 26 25 24 24 24 23 23 22 21 22 22 23 23 23 23 22 22 22 21 21 21 20 21
36 36 35 34 33 32 33 32 31 30 31 32 31 31 31 31 31 31 30 30 29 29 28 27 26 26 25 24 23 23 23 23 24 24 24 23 22 22 22 22 22 21 21 22
35 35 35 34 34 33 33 33 32 31 31 32 32 31 31 31 31 32 31 30 30 29 29 28 27 26 26 26 25 24 24 24 24 24 23 23 22 22 22 23 23 22 22 22
34 35 35 35 34 34 34 33 33 33 32 32 32 32 31 31 31 32 31 30 30 29 28 28 27 27 27 26 26 25 25 25 25 24 24 23 23 23 23 23 23 22 22 23
33 34 34 34 34 34 34 34 34 34 33 34 33 32 32 32 31 30 30 29 28 27 27 27 27 26 26 26 26 25 25 25 24 24 23 23 23 23 23 23 23 23 23 23
31 32 32 33 33 33 33 34 35 35 35 35 34 33 33 31 30 29 28 27 27 26 26 27 27 26 26 26 26 26 26 25 25 24 23 23 24 24 23 23 24 24 24 25
31 31 32 32 32 32 32 33 33 34 34 34 33 33 32 31 30 29 29 28 27 27 26 27 27 27 26 26 25 25 25 25 25 25 24 24 24 24 24 24 24 25 25 25
31 31 31 31 30 31 31 31 32 32 31 31 31 31 31 31 31 30 29 29 28 28 28 27 26 26 26 26 25 24 24 23 24 25 25 24 24 25 24 24 24 25 25 26
29 30 30 30 30 30 29 29 29 30 29 29 29 30 30 31 31 31 31 31 30 29 29 28 27 26 26 26 25 24 24 24 24 24 24 24 24 24 24 25 25 25 25 26
28 28 28 29 30 30 30 28 28 28 29 29 29 28 28 29 29 30 29 30 30 29 28 27 26 26 26 26 26 25 24 24 24 23 24 24 24 24 25 25 25 26 26 27
27 27 27 28 28 28 28 28 28 28 28 28 28 27 28 28 28 29 29 30 30 29 28 28 28 27 27 26 25 24 24 24 23 23 24 24 24 24 25 25 25 25 26 26
26 26 26 26 27 27 27 27 27 27 28 28 28 27 28 28 28 29 29 29 30 30 30 29 28 28 27 27 26 24 23 23 23 24 24 24 24 24 25 25 25 25 25 25
23 24 25 25 25 25 25 26 26 27 27 27 27 27 27 27 27 27 27 27 27 29 29 29 28 28 28 27 26 24 24 23 23 23 23 24 24 24 24 25 25 25 25 26
22 22 22 23 24 24 25 25 25 25 25 25 25 25 25 25 25 25 25 25 25 26 27 27 27 27 27 27 26 25 24 23 24 24 24 24 25 25 25 25 25 26 26 26
20 21 20 20 22 24 23 23 23 23 23 23 22 22 22 23 23 23 24 24 24 24 25 25 25 25 25 25 24 24 24 24 24 24 24 24 25 25 26 26 26 26 27 27
19 20 20 19 20 21 21 22 22 21 21 21 21 21 21 21 22 22 22 22 23 22 23 23 23 23 24 24 23 23 23 23 23 24 24 25 25 26 26 26 26 26 27 27
16 17 17 17 19 20 20 19 19 19 19 19 19 19 19 19 19 20 19 20 20 21 21 21 22 23 23 23 22 22 22 23 23 23 23 24 24 25 25 25 25 25 26 26
15 16 16 16 16 18 18 18 18 18 18 18 18 17 17 17 17 18 18 18 19 19 19 20 21 22 22 22 22 22 22 22 23 23 23 24 24 24 23 24 25 25 26 27
Wind_Direction
226 227 229 232 236 238 240 242 245 246 247 248 250 253 256 257 259 263 265 266 267 269 269 271 275 277 278 281 285 285 285 284 282 282 281 280 279 280 285 290 292 293 294 293
225 225 228 232 234 237 239 241 243 245 246 247 249 252 255 255 256 259 263 266 269 270 268 269 272 276 278 283 285 283 283 284 283 279 278 279 279 280 284 285 286 288 288 290
226 226 228 231 234 236 239 241 242 244 245 247 250 252 253 253 254 256 261 264 268 268 267 268 272 274 277 281 286 285 281 282 283 280 278 279 278 280 283 285 286 286 286 287
229 229 232 233 235 237 239 240 243 245 246 247 249 250 250 252 253 254 258 263 266 270 268 269 272 273 276 279 282 282 279 279 278 278 278 279 278 279 282 283 285 286 284 286
230 231 235 235 236 238 240 242 242 244 245 245 245 248 249 251 254 257 261 264 267 270 271 269 271 274 275 276 278 276 274 274 275 275 276 278 281 282 282 284 283 282 284 286
232 233 234 236 237 239 241 241 241 244 247 248 246 249 253 256 256 258 261 264 267 270 271 271 270 272 274 272 272 271 270 270 272 271 274 278 281 280 280 281 279 279 282 283
234 236 236 237 238 239 241 242 242 244 246 248 248 249 252 255 257 259 261 262 266 270 271 269 269 271 272 271 270 269 269 269 269 270 274 279 282 280 279 278 276 278 281 281
235 237 238 238 240 240 242 242 242 243 245 247 248 249 251 253 254 257 261 263 265 267 267 266 267 268 269 271 270 270 269 269 269 271 273 276 279 280 278 278 279 279 281 283
238 239 240 240 242 243 244 242 242 242 244 247 249 250 251 252 254 255 259 262 264 264 265 266 265 266 268 270 270 270 270 270 271 272 272 274 275 276 278 280 280 280 280 282
240 241 241 241 242 244 245 245 244 244 245 247 249 252 253 254 256 257 259 260 262 264 264 266 267 267 267 267 268 269 270 270 272 272 272 273 274 275 278 280 280 281 281 281
242 242 243 242 243 244 245 245 244 245 246 247 249 251 253 254 256 259 259 261 262 262 263 266 267 267 266 267 268 270 271 271 272 272 272 272 273 274 276 279 281 280 280 281
241 241 242 241 241 242 244 244 245 246 247 248 249 251 252 253 254 256 258 259 262 263 265 265 264 265 265 266 267 269 271 272 272 271 271 271 272 274 276 278 279 279 279 281
241 241 241 241 242 242 242 243 244 245 246 248 249 250 252 254 253 254 255 259 260 262 264 263 263 264 264 265 266 267 270 270 271 270 269 269 271 274 276 278 278 277 279 281
240 240 241 242 242 242 242 242 243 245 246 247 249 251 254 255 253 253 255 258 259 260 262 263 263 262 263 263 264 266 268 269 269 268 266 267 270 273 275 277 279 280 280 280
240 240 241 241 242 242 242 243 244 245 247 249 251 252 252 251 249 251 253 255 257 258 260 263 264 263 263 263 263 265 267 269 269 267 267 268 270 272 274 276 278 280 282 283
238 239 241 242 243 244 244 244 245 246 247 248 250 250 249 246 246 249 251 253 256 258 260 262 263 261 261 262 263 264 265 266 266 267 268 270 271 274 276 276 277 279 281 284
238 240 241 242 243 244 245 244 244 244 245 246 247 246 246 247 246 248 251 253 256 258 259 261 261 259 258 260 262 263 264 265 266 267 269 270 272 273 274 275 277 279 281 284
241 241 241 242 242 242 241 241 241 241 243 245 246 246 246 246 246 249 251 252 254 257 258 259 259 256 257 258 260 261 262 263 266 268 268 270 272 273 275 277 278 280 282 284
242 243 242 242 241 241 239 239 239 240 242 243 245 246 245 245 248 250 250 252 254 255 255 256 257 255 255 257 259 259 260 262 265 267 270 272 273 274 276 278 279 281 283 285
244 245 243 242 240 239 238 239 240 241 242 244 244 244 245 247 249 251 251 252 252 253 254 255 257 256 256 257 257 258 260 262 264 267 270 271 272 274 277 278 281 283 284 286
243 243 240 239 238 239 240 240 241 243 244 244 245 246 247 247 249 250 251 251 251 251 252 254 255 256 256 254 254 257 260 261 263 266 267 269 271 274 277 279 281 283 285 287
239 238 237 235 236 238 240 242 243 244 245 245 246 245 245 246 247 248 249 250 250 249 250 251 252 252 252 252 252 255 258 260 262 265 268 270 272 274 276 279 282 284 286 287
237 235 235 237 238 240 240 242 244 244 245 246 245 244 244 245 245 246 247 247 248 248 248 249 250 250 249 249 250 253 255 258 261 264 268 271 273 275 277 280 283 284 286 289
234 233 237 240 239 239 239 242 243 242 241 240 240 241 242 243 243 243 245 245 246 246 247 247 246 244 244 246 248 251 254 258 261 264 268 270 273 276 278 281 284 286 287 288
236 237 240 241 239 237 238 238 239 238 236 236 237 238 238 239 241 243 244 244 243 242 241 240 239 239 243 246 248 251 255 258 261 264 267 270 273 276 278 280 283 285 286 287
236 236 236 234 234 236 238 237 237 237 234 232 234 236 238 239 240 242 242 241 239 239 240 240 241 243 246 248 249 252 256 260 263 265 268 271 275 277 278 279 282 286 287 289
237 238 235 232 233 233 234 233 231 231 232 231 232 234 235 236 238 240 241 240 239 240 241 241 242 244 247 249 251 253 257 260 262 266 270 273 276 277 279 281 283 285 288 291
Height
5836 5841 5844 5848 5851 5855 5858 5861 5864 5868 5871 5874 5877 5879 5881 5883 5885 5886 5887 5888 5888 5889 5889 5889 5889 5889 5889 5888 5888 5887 5887 5887 5886 5885 5885 5885 5885 5884 5884 5883 5882 5881 5881 5880
5830 5835 5838 5842 5845 5849 5852 5855 5859 5862 5866 5869 5871 5873 5876 5878 5880 5881 5883 5884 5884 5885 5885 5886 5886 5886 5885 5885 5884 5884 5884 5883 5883 5882 5882 5881 5881 5881 5880 5880 5879 5878 5878 5877
5825 5829 5832 5836 5840 5843 5847 5850 5853 5856 5861 5863 5866 5868 5870 5872 5874 5876 5878 5879 5880 5880 5881 5881 5882 5882 5882 5881 5881 5880 5880 5880 5879 5878 5878 5878 5877 5877 5877 5876 5875 5875 5874 5873
5820 5824 5827 5833 5835 5838 5841 5844 5848 5851 5854 5857 5860 5863 5865 5867 5869 5871 5873 5874 5875 5876 5876 5876 5877 5877 5877 5876 5876 5876 5876 5876 5875 5875 5875 5874 5873 5873 5872 5872 5871 5871 5870 5869
5813 5817 5821 5826 5829 5832 5836 5839 5842 5845 5849 5851 5854 5857 5859 5861 5863 5866 5867 5869 5870 5870 5870 5871 5871 5871 5871 5872 5872 5872 5872 5871 5871 5871 5871 5870 5869 5868 5868 5868 5867 5867 5866 5865
5807 5810 5814 5820 5824 5826 5831 5833 5837 5840 5843 5846 5849 5852 5855 5856 5858 5860 5861 5862 5864 5864 5865 5865 5866 5866 5867 5867 5867 5867 5867 5867 5866 5866 5866 5865 5865 5864 5863 5863 5863 5862 5862 5861
5800 5804 5808 5813 5816 5820 5825 5828 5832 5834 5837 5840 5843 5846 5849 5850 5852 5854 5855 5856 5857 5858 5859 5860 5860 5861 5862 5862 5862 5862 5862 5861 5861 5861 5861 5861 5860 5860 5859 5858 5858 5857 5857 5856
5793 5797 5803 5806 5809 5814 5817 5821 5824 5828 5831 5834 5836 5839 5842 5844 5846 5847 5848 5850 5851 5852 5853 5854 5855 5856 5856 5856 5856 5856 5856 5856 5856 5856 5856 5856 5856 5855 5854 5853 5852 5852 5852 5851
5787 5792 5796 5799 5802 5806 5810 5814 5817 5821 5824 5826 5829 5832 5834 5836 5839 5840 5842 5843 5844 5845 5846 5847 5848 5849 5850 5850 5850 5850 5850 5850 5850 5850 5850 5850 5850 5849 5849 5848 5847 5847 5846 5846
5779 5784 5788 5791 5795 5798 5802 5806 5810 5813 5816 5819 5822 5824 5827 5829 5831 5833 5835 5836 5838 5839 5840 5841 5841 5842 5843 5844 5844 5844 5844 5844 5844 5844 5844 5844 5844 5844 5843 5842 5842 5841 5840 5839
5771 5776 5780 5784 5787 5791 5794 5798 5802 5805 5808 5811 5814 5816 5819 5821 5823 5825 5827 5829 5830 5831 5832 5833 5834 5835 5836 5836 5837 5837 5837 5838 5838 5838 5838 5838 5838 5838 5837 5836 5835 5834 5834 5833
5764 5768 5772 5776 5779 5783 5786 5790 5794 5797 5800 5803 5805 5808 5810 5813 5815 5817 5819 5820 5822 5823 5824 5825 5826 5827 5828 5829 5830 5830 5831 5831 5831 5831 5831 5832 5832 5831 5831 5830 5829 5828 5827 5827
5755 5759 5763 5767 5771 5774 5778 5781 5785 5788 5792 5794 5797 5800 5802 5804 5806 5808 5810 5812 5814 5815 5817 5818 5819 5820 5820 5821 5822 5823 5824 5824 5824 5825 5825 5825 5825 5825 5825 5824 5823 5822 5821 5820
5746 5750 5755 5759 5762 5766 5769 5773 5776 5779 5783 5785 5788 5791 5793 5795 5797 5800 5802 5804 5806 5807 5809 5810 5811 5812 5813 5813 5814 5816 5817 5817 5817 5818 5818 5819 5819 5819 5818 5818 5817 5815 5815 5814
5739 5742 5746 5750 5754 5757 5760 5764 5767 5770 5773 5776 5779 5782 5784 5786 5789 5791 5794 5796 5798 5800 5801 5803 5804 5805 5806 5807 5807 5809 5810 5810 5811 5811 5812 5812 5812 5812 5811 5811 5810 5809 5808 5807
5731 5734 5738 5741 5745 5748 5752 5755 5758 5761 5764 5767 5770 5773 5775 5778 5780 5783 5785 5788 5790 5792 5793 5795 5796 5797 5798 5799 5800 5801 5802 5803 5804 5804 5805 5805 5805 5805 5804 5804 5803 5803 5802 5801
5723 5726 5730 5733 5736 5740 5743 5746 5749 5752 5755 5757 5761 5763 5766 5769 5772 5774 5777 5779 5781 5783 5785 5787 5788 5789 5791 5792 5793 5794 5795 5796 5797 5797 5798 5798 5798 5798 5797 5797 5796 5795 5795 5794
5715 5719 5722 5725 5728 5731 5734 5737 5739 5743 5746 5748 5751 5754 5756 5759 5762 5765 5768 5770 5772 5774 5777 5778 5780 5781 5783 5785 5786 5788 5789 5789 5790 5791 5791 5791 5791 5791 5790 5790 5789 5788 5787 5786
5708 5710 5713 5716 5719 5721 5725 5728 5731 5734 5737 5740 5742 5745 5747 5750 5753 5756 5758 5761 5763 5766 5768 5770 5771 5773 5776 5777 5779 5780 5781 5782 5783 5784 5784 5784 5784 5783 5783 5782 5782 5781 5780 5778
5700 5702 5705 5707 5710 5713 5716 5720 5723 5726 5728 5731 5733 5736 5738 5741 5744 5746 5748 5751 5754 5757 5759 5762 5764 5766 5768 5770 5771 5773 5774 5775 5776 5776 5776 5776 5776 5776 5776 5775 5774 5773 5772 5770
5693 5695 5697 5700 5703 5706 5708 5711 5714 5717 5720 5723 5725 5727 5730 5733 5735 5737 5739 5742 5745 5748 5750 5753 5755 5758 5760 5762 5764 5765 5766 5768 5769 5769 5769 5769 5769 5769 5769 5768 5767 5765 5764 5763
5686 5688 5691 5693 5696 5699 5701 5704 5707 5709 5712 5714 5717 5719 5722 5724 5727 5729 5731 5733 5736 5738 5741 5744 5747 5749 5752 5754 5756 5758 5759 5760 5761 5762 5762 5762 5762 5762 5761 5761 5760 5758 5757 5755
5680 5682 5685 5687 5689 5692 5694 5697 5699 5702 5704 5707 5709 5712 5714 5717 5719 5721 5724 5726 5727 5730 5733 5735 5738 5741 5744 5746 5749 5751 5752 5754 5754 5755 5755 5755 5755 5755 5754 5754 5753 5751 5749 5747
5674 5677 5679 5680 5682 5685 5687 5690 5692 5694 5697 5699 5702 5705 5707 5709 5711 5714 5716 5718 5720 5722 5725 5728 5730 5734 5736 5739 5742 5744 5745 5746 5747 5748 5748 5748 5748 5748 5747 5746 5745 5744 5742 5740
5669 5671 5673 5674 5676 5678 5681 5683 5686 5688 5691 5694 5696 5698 5700 5703 5705 5707 5709 5712 5714 5716 5718 5721 5724 5727 5730 5733 5734 5736 5738 5739 5740 5740 5741 5741 5740 5740 5739 5738 5737 5736 5734 5732
5664 5666 5667 5669 5671 5673 5675 5678 5681 5683 5686 5688 5691 5693 5695 5697 5699 5702 5704 5706 5708 5711 5713 5716 5718 5721 5723 5726 5727 5729 5730 5732 5732 5733 5733 5733 5733 5732 5731 5730 5729 5728 5727 5725
5660 5661 5663 5664 5666 5668 5671 5673 5676 5679 5681 5684 5686 5689 5691 5693 5695 5697 5699 5702 5704 5706 5708 5710 5713 5715 5717 5719 5721 5722 5723 5724 5725 5725 5725 5725 5725 5725 5724 5723 5722 5720 5719 5717